Location: Aciu?a
(46.2833°N, 22.4500°E)
Time: 13:33:06
(UTC+00:00)

USA 229 DEB - Pass Details

Date: 25 October 2021
Orbit: 944 x 1268 km, 63.4° (Epoch: 25 November)

Event Time Altitude Azimuth Distance (km) Brightness Sun altitude
Rises 16:41:07 0° 205° (SSW) 3,618 6.9 -13.5°
Reaches altitude 10° 16:43:38 10° 202° (SSW) 2,696 6.1 -13.9°
Maximum altitude 16:49:50 63° 122° (ESE) 1,111 3.6 -15.0°
Enters shadow 16:56:25 10° 44° (NE) 2,861 5.5 -16.1°
